| time (UTC) | temp F | wind direction | speed MPH | gust MPH | rain 1hr in | rain 24hr in | rain mn in | humidity % | barometer mb |
| 20260906193001 | 53 | 266 | 0.0 | 0.0 | 0.00 | 0.01 | 0.01 | 82 | 1014.3 |
| 20260906191600 | 55 | 266 | 0.0 | 1.0 | 0.00 | 0.01 | 0.01 | 80 | 1014.3 |
| 20260906190113 | 56 | 266 | 0.0 | 0.0 | 0.00 | 0.01 | 0.01 | 77 | 1014.1 |
| 20260906184558 | 57 | 266 | 0.0 | 0.0 | 0.00 | 0.01 | 0.01 | 76 | 1014.1 |
| 20260906183059 | 58 | 266 | 0.0 | 0.0 | 0.00 | 0.01 | 0.01 | 72 | 1013.9 |
| 20260906181555 | 61 | 266 | 0.0 | 0.0 | 0.00 | 0.01 | 0.01 | 68 | 1013.9 |
| 20260906180054 | 62 | 266 | 0.0 | 1.0 | 0.00 | 0.01 | 0.01 | 65 | 1013.7 |
| 20260906174552 | 62 | 266 | 0.0 | 4.0 | 0.00 | 0.01 | 0.01 | 64 | 1013.6 |
| 20260906173051 | 63 | 240 | 3.0 | 5.0 | 0.00 | 0.01 | 0.01 | 63 | 1013.5 |
| 20260906171552 | 63 | 263 | 2.0 | 4.0 | 0.00 | 0.01 | 0.01 | 63 | 1013.4 |
| 20260906170052 | 64 | 232 | 3.0 | 6.0 | 0.00 | 0.01 | 0.01 | 60 | 1013.2 |
| 20260906164549 | 64 | 261 | 2.0 | 6.0 | 0.00 | 0.01 | 0.01 | 59 | 1013.2 |
| 20260906163049 | 65 | 219 | 4.0 | 9.0 | 0.00 | 0.01 | 0.01 | 57 | 1013.1 |
| 20260906161544 | 65 | 232 | 3.0 | 11.0 | 0.00 | 0.01 | 0.01 | 58 | 1013.1 |
| 20260906160100 | 65 | 238 | 5.0 | 10.0 | 0.00 | 0.01 | 0.01 | 57 | 1013.0 |
| 20260906154552 | 66 | 259 | 8.0 | 12.0 | 0.00 | 0.01 | 0.01 | 55 | 1013.0 |
| 20260906153038 | 67 | 271 | 7.0 | 13.0 | 0.00 | 0.01 | 0.01 | 54 | 1012.8 |
| 20260906151536 | 67 | 210 | 7.0 | 15.0 | 0.00 | 0.01 | 0.01 | 52 | 1012.7 |
| 20260906150041 | 67 | 237 | 5.0 | 12.0 | 0.00 | 0.01 | 0.01 | 53 | 1012.7 |
| 20260906144636 | 67 | 255 | 6.0 | 14.0 | 0.00 | 0.01 | 0.01 | 52 | 1012.6 |
| 20260906143031 | 67 | 222 | 9.0 | 15.0 | 0.00 | 0.01 | 0.01 | 52 | 1012.6 |
| 20260906141529 | 68 | 213 | 7.0 | 15.0 | 0.00 | 0.01 | 0.01 | 52 | 1012.5 |
| 20260906140026 | 68 | 200 | 9.0 | 14.0 | 0.00 | 0.01 | 0.01 | 50 | 1012.4 |
| 20260906134538 | 68 | 282 | 8.0 | 15.0 | 0.00 | 0.01 | 0.01 | 49 | 1012.3 |
| 20260906133031 | 67 | 246 | 9.0 | 15.0 | 0.00 | 0.01 | 0.01 | 48 | 1012.3 |
| 20260906131518 | 67 | 263 | 6.0 | 11.0 | 0.00 | 0.01 | 0.01 | 54 | 1012.1 |
| 20260906130017 | 67 | 215 | 6.0 | 15.0 | 0.00 | 0.01 | 0.01 | 56 | 1012.2 |
| 20260906124515 | 67 | 207 | 11.0 | 14.0 | 0.00 | 0.01 | 0.01 | 53 | 1012.1 |
| 20260906123022 | 66 | 227 | 5.0 | 10.0 | 0.00 | 0.01 | 0.01 | 56 | 1012.1 |
| 20260906121513 | 67 | 238 | 7.0 | 13.0 | 0.00 | 0.01 | 0.01 | 55 | 1012.1 |
| 20260906120012 | 66 | 258 | 6.0 | 15.0 | 0.00 | 0.01 | 0.01 | 53 | 1012.2 |
| 20260906114510 | 66 | 252 | 7.0 | 15.0 | 0.00 | 0.01 | 0.01 | 55 | 1012.0 |
| 20260906113006 | 66 | 257 | 6.0 | 12.0 | 0.00 | 0.01 | 0.01 | 57 | 1012.0 |
| 20260906111503 | 65 | 223 | 9.0 | 13.0 | 0.00 | 0.01 | 0.01 | 58 | 1011.9 |
| 20260906104626 | 64 | 222 | 9.0 | 13.0 | 0.00 | 0.01 | 0.01 | 61 | 1011.8 |
| 20260906103056 | 64 | 249 | 7.0 | 12.0 | 0.00 | 0.01 | 0.01 | 65 | 1011.8 |
| 20260906101555 | 64 | 231 | 6.0 | 10.0 | 0.00 | 0.01 | 0.01 | 66 | 1011.5 |
| 20260906100052 | 63 | 257 | 6.0 | 10.0 | 0.00 | 0.01 | 0.01 | 68 | 1011.5 |
| 20260906094550 | 63 | 261 | 6.0 | 12.0 | 0.00 | 0.01 | 0.01 | 69 | 1011.4 |
| 20260906093058 | 62 | 311 | 7.0 | 13.0 | 0.00 | 0.01 | 0.01 | 70 | 1011.4 |
| 20260906091544 | 62 | 288 | 5.0 | 11.0 | 0.00 | 0.01 | 0.01 | 72 | 1011.3 |
| 20260906090041 | 61 | 255 | 8.0 | 11.0 | 0.00 | 0.01 | 0.01 | 72 | 1011.1 |
| 20260906084539 | 61 | 278 | 4.0 | 13.0 | 0.00 | 0.02 | 0.01 | 75 | 1010.9 |
| 20260906083037 | 60 | 240 | 6.0 | 9.0 | 0.00 | 0.02 | 0.01 | 76 | 1010.9 |
| 20260906081532 | 59 | 257 | 6.0 | 10.0 | 0.00 | 0.02 | 0.01 | 77 | 1010.7 |
| 20260906080033 | 59 | 271 | 6.0 | 10.0 | 0.00 | 0.02 | 0.01 | 77 | 1010.6 |
| 20260906074529 | 58 | 266 | 7.0 | 11.0 | 0.00 | 0.02 | 0.01 | 80 | 1010.5 |
| 20260906073029 | 57 | 252 | 7.0 | 12.0 | 0.00 | 0.02 | 0.01 | 82 | 1010.3 |
| 20260906071525 | 57 | 272 | 7.0 | 12.0 | 0.01 | 0.02 | 0.01 | 85 | 1010.1 |
| 20260906070017 | 56 | 254 | 7.0 | 13.0 | 0.01 | 0.02 | 0.01 | 88 | 1010.1 |
| 20260906064515 | 55 | 257 | 8.0 | 12.0 | 0.01 | 0.02 | 0.01 | 90 | 1009.9 |
| 20260906063011 | 54 | 259 | 7.0 | 12.0 | 0.00 | 0.01 | 0.00 | 93 | 1009.8 |
| 20260906061509 | 52 | 261 | 6.0 | 9.0 | 0.00 | 0.01 | 0.00 | 92 | 1009.7 |
| 20260906060009 | 51 | 259 | 2.0 | 4.0 | 0.00 | 0.01 | 0.00 | 93 | 1009.4 |
| 20260906054505 | 50 | 284 | 2.0 | 3.0 | 0.00 | 0.01 | 0.00 | 93 | 1009.3 |
| 20260906053002 | 46 | 284 | 0.0 | 0.0 | 0.00 | 0.01 | 0.00 | 93 | 1009.1 |
| 20260906051501 | 46 | 284 | 0.0 | 0.0 | 0.00 | 0.01 | 0.00 | 93 | 1009.0 |
| 20260906050122 | 44 | 284 | 0.0 | 0.0 | 0.00 | 0.01 | 0.00 | 93 | 1008.9 |
| 20260906044559 | 43 | 284 | 0.0 | 0.0 | 0.00 | 0.01 | 0.00 | 93 | 1008.8 |
| 20260906043058 | 42 | 284 | 0.0 | 0.0 | 0.00 | 0.01 | 0.00 | 93 | 1008.6 |
| 20260906041554 | 42 | 284 | 0.0 | 0.0 | 0.00 | 0.01 | 0.00 | 93 | 1008.4 |
| 20260906040053 | 43 | 284 | 0.0 | 0.0 | 0.00 | 0.01 | 0.00 | 93 | 1008.4 |
| 20260906034549 | 43 | 284 | 0.0 | 0.0 | 0.00 | 0.01 | 0.00 | 93 | 1008.3 |
| 20260906033055 | 43 | 284 | 0.0 | 0.0 | 0.00 | 0.01 | 0.00 | 93 | 1008.1 |
| 20260906031545 | 44 | 284 | 0.0 | 0.0 | 0.00 | 0.01 | 0.00 | 93 | 1008.0 |
| 20260906030042 | 44 | 284 | 0.0 | 0.0 | 0.00 | 0.01 | 0.00 | 93 | 1007.8 |
| 20260906024543 | 44 | 284 | 0.0 | 0.0 | 0.00 | 0.01 | 0.00 | 93 | 1007.6 |
| 20260906023038 | 44 | 284 | 0.0 | 0.0 | 0.00 | 0.01 | 0.00 | 93 | 1007.5 |
| 20260906021538 | 45 | 284 | 0.0 | 0.0 | 0.00 | 0.01 | 0.00 | 93 | 1007.3 |
| 20260906020038 | 45 | 284 | 0.0 | 0.0 | 0.00 | 0.01 | 0.00 | 93 | 1007.1 |
| 20260906014542 | 45 | 284 | 0.0 | 0.0 | 0.00 | 0.01 | 0.00 | 93 | 1006.9 |
| 20260906013031 | 46 | 284 | 0.0 | 0.0 | 0.00 | 0.01 | 0.00 | 93 | 1006.8 |
| 20260906011525 | 47 | 284 | 0.0 | 0.0 | 0.00 | 0.01 | 0.00 | 92 | 1006.6 |
| 20260906010023 | 47 | 284 | 0.0 | 2.0 | 0.00 | 0.01 | 0.00 | 92 | 1006.5 |
| 20260906004519 | 48 | 284 | 0.0 | 0.0 | 0.00 | 0.01 | 0.00 | 92 | 1006.3 |
| 20260906003015 | 48 | 284 | 0.0 | 2.0 | 0.00 | 0.01 | 0.00 | 92 | 1006.0 |
| 20260906001513 | 49 | 284 | 1.0 | 2.0 | 0.00 | 0.01 | 0.00 | 92 | 1005.9 |
| 20260906000010 | 49 | 284 | 2.0 | 3.0 | 0.00 | 0.01 | 0.00 | 92 | 1005.7 |
| 20260905234507 | 50 | 284 | 2.0 | 2.0 | 0.00 | 0.01 | 0.00 | 92 | 1005.5 |
| 20260905233010 | 51 | 284 | 1.0 | 2.0 | 0.00 | 0.01 | 0.00 | 92 | 1005.3 |
| 20260905231502 | 51 | 284 | 2.0 | 3.0 | 0.00 | 0.01 | 0.00 | 92 | 1005.1 |
| 20260905230128 | 52 | 284 | 1.0 | 3.0 | 0.00 | 0.01 | 0.00 | 91 | 1004.9 |
| 20260905224557 | 52 | 284 | 0.0 | 3.0 | 0.00 | 0.01 | 0.00 | 91 | 1004.8 |
| 20260905223053 | 52 | 311 | 2.0 | 4.0 | 0.00 | 0.01 | 0.00 | 91 | 1004.6 |
| 20260905221650 | 53 | 311 | 2.0 | 4.0 | 0.00 | 0.01 | 0.00 | 90 | 1004.4 |
| 20260905220047 | 53 | 294 | 3.0 | 5.0 | 0.00 | 0.01 | 0.00 | 90 | 1004.2 |
| 20260905214544 | 54 | 316 | 2.0 | 5.0 | 0.00 | 0.02 | 0.01 | 89 | 1003.9 |
| 20260905213043 | 54 | 312 | 3.0 | 6.0 | 0.00 | 0.02 | 0.01 | 89 | 1003.7 |
| 20260905211546 | 54 | 346 | 4.0 | 6.0 | 0.00 | 0.02 | 0.01 | 88 | 1003.6 |
| 20260905210040 | 55 | 315 | 2.0 | 5.0 | 0.00 | 0.02 | 0.01 | 86 | 1003.5 |
| 20260905204537 | 55 | 338 | 2.0 | 8.0 | 0.00 | 0.02 | 0.01 | 86 | 1003.2 |
| 20260905203035 | 55 | 319 | 2.0 | 6.0 | 0.00 | 0.02 | 0.01 | 86 | 1003.0 |
| 20260905201534 | 55 | 302 | 4.0 | 6.0 | 0.00 | 0.02 | 0.01 | 85 | 1002.8 |
| 20260905200032 | 55 | 303 | 2.0 | 8.0 | 0.00 | 0.02 | 0.01 | 85 | 1002.7 |
| 20260905194531 | 55 | 325 | 2.0 | 5.0 | 0.00 | 0.07 | 0.01 | 84 | 1002.5 |